This is the latest recevied weather packets stored in our database for station/object KE5OYL. If no packets are shown the sender has not sent any weather packets the latest 10 day(s).
| Time | Temp. | Humidity | Pressure | Rain* | Wind** | Luminosity | Snow |
|---|---|---|---|---|---|---|---|
| 1777819386 | 21.11° C | 49% | 1021.9 hPa | 0 mm | - | 422 W/m² | - |
| 1777819082 | 21.11° C | 48% | 1022.2 hPa | 0 mm | - | 406 W/m² | - |
| 1777818779 | 21.11° C | 48% | 1022.1 hPa | 0 mm | - | 394 W/m² | - |
| 1777818475 | 21.11° C | 49% | 1022.3 hPa | 0 mm | - | 375 W/m² | - |
| 1777818172 | 21.11° C | 49% | 1022 hPa | 0 mm | - | 360 W/m² | - |
| 1777817868 | 21.11° C | 49% | 1022 hPa | 0 mm | - | 343 W/m² | - |
| 1777817566 | 20.56° C | 49% | 1022.1 hPa | 0 mm | - | 328 W/m² | - |
| 1777817262 | 20.56° C | 50% | 1022 hPa | 0 mm | - | 308 W/m² | - |
| 1777816960 | 20° C | 51% | 1022.1 hPa | 0 mm | - | 292 W/m² | - |
| 1777816656 | 20° C | 52% | 1022 hPa | 0 mm | - | 274 W/m² | - |
| 1777816353 | 20° C | 52% | 1022.1 hPa | 0 mm | - | 259 W/m² | - |
| 1777816051 | 19.44° C | 53% | 1022 hPa | 0 mm | - | 241 W/m² | - |
| 1777815748 | 19.44° C | 53% | 1022.1 hPa | 0 mm | - | 225 W/m² | - |
| 1777815446 | 19.44° C | 53% | 1022 hPa | 0 mm | - | 138 W/m² | - |
| 1777815143 | 19.44° C | 54% | 1022.1 hPa | 0 mm | - | 192 W/m² | - |
| 1777814839 | 19.44° C | 54% | 1021.8 hPa | 0 mm | - | 175 W/m² | - |
| 1777814535 | 18.89° C | 55% | 1021.8 hPa | 0 mm | - | 70 W/m² | - |
| 1777814233 | 18.89° C | 55% | 1021.6 hPa | 0 mm | - | 150 W/m² | - |
| 1777813930 | 18.33° C | 56% | 1021.8 hPa | 0 mm | - | 113 W/m² | - |
| 1777813627 | 18.33° C | 56% | 1021.7 hPa | 0 mm | - | 56 W/m² | - |
| 1777813324 | 18.33° C | 57% | 1021.8 hPa | 0 mm | - | 111 W/m² | - |
| 1777813022 | 17.78° C | 58% | 1021.6 hPa | 0 mm | - | 98 W/m² | - |
| 1777812719 | 17.78° C | 60% | 1021.7 hPa | 0 mm | - | 85 W/m² | - |
| 1777812415 | 17.78° C | 60% | 1021.7 hPa | 0 mm | - | 74 W/m² | - |
| 1777812114 | 17.22° C | 60% | 1021.6 hPa | 0 mm | - | 66 W/m² | - |
* Rain latest hour (hover to see other rain measurements)
** Current wind speed in m/s (hover to see current wind gust speed)